TimeEDT,TemperatureF,Dew PointF,Humidity,Sea Level PressureIn,VisibilityMPH,Wind Direction,Wind SpeedMPH,Gust SpeedMPH,PrecipitationIn,Events,Conditions,WindDirDegrees,DateUTC
12:53 AM,66.0,62.1,87,29.88,10.0,South,9.2,-,N/A,,Overcast,180,2013-07-27 04:53:00
1:53 AM,64.9,62.1,90,29.87,10.0,South,8.1,-,N/A,,Mostly Cloudy,190,2013-07-27 05:53:00
2:02 AM,66.2,62.6,88,29.88,10.0,SSW,8.1,-,N/A,,Mostly Cloudy,200,2013-07-27 06:02:00
2:26 AM,64.4,62.6,94,29.87,10.0,SSW,5.8,-,N/A,,Overcast,200,2013-07-27 06:26:00
2:53 AM,64.0,62.1,93,29.85,10.0,South,6.9,-,N/A,,Partly Cloudy,180,2013-07-27 06:53:00
3:53 AM,64.9,62.1,90,29.85,10.0,South,5.8,-,N/A,,Overcast,190,2013-07-27 07:53:00
4:24 AM,64.4,62.6,94,29.86,10.0,South,5.8,-,N/A,,Overcast,190,2013-07-27 08:24:00
4:53 AM,64.9,62.1,90,29.85,10.0,SSW,4.6,-,N/A,,Overcast,200,2013-07-27 08:53:00
5:18 AM,64.4,62.6,94,29.85,10.0,SW,3.5,-,N/A,,Overcast,230,2013-07-27 09:18:00
5:53 AM,64.9,62.1,90,29.84,10.0,SW,3.5,-,N/A,,Overcast,220,2013-07-27 09:53:00
6:53 AM,66.0,63.0,90,29.85,10.0,Calm,Calm,-,0.00,,Overcast,0,2013-07-27 10:53:00
7:53 AM,66.0,63.0,90,29.85,9.0,SSW,4.6,-,N/A,,Overcast,200,2013-07-27 11:53:00
8:32 AM,66.2,62.6,88,29.85,8.0,SW,5.8,-,N/A,,Overcast,220,2013-07-27 12:32:00
8:44 AM,66.2,62.6,88,29.85,8.0,SW,8.1,-,N/A,,Overcast,230,2013-07-27 12:44:00
8:51 AM,66.2,62.6,88,29.85,8.0,SW,5.8,-,N/A,,Overcast,230,2013-07-27 12:51:00
8:53 AM,66.0,63.0,90,29.85,8.0,WSW,4.6,-,N/A,,Overcast,240,2013-07-27 12:53:00
9:01 AM,66.2,62.6,88,29.85,8.0,SW,5.8,-,N/A,,Overcast,230,2013-07-27 13:01:00
9:09 AM,66.2,62.6,88,29.85,8.0,SW,6.9,-,N/A,,Mostly Cloudy,230,2013-07-27 13:09:00
9:19 AM,66.2,62.6,88,29.85,8.0,SW,8.1,-,N/A,,Mostly Cloudy,230,2013-07-27 13:19:00
9:53 AM,68.0,62.1,81,29.84,9.0,WSW,5.8,-,N/A,,Mostly Cloudy,240,2013-07-27 13:53:00
10:53 AM,69.1,62.1,78,29.82,10.0,Variable,4.6,-,N/A,,Mostly Cloudy,0,2013-07-27 14:53:00
11:04 AM,69.8,62.6,78,29.83,10.0,SW,5.8,-,N/A,,Mostly Cloudy,230,2013-07-27 15:04:00
11:22 AM,69.8,62.6,78,29.83,10.0,SW,5.8,-,N/A,,Scattered Clouds,220,2013-07-27 15:22:00
11:29 AM,69.8,62.6,78,29.82,10.0,West,6.9,-,N/A,,Mostly Cloudy,260,2013-07-27 15:29:00
11:40 AM,69.8,60.8,73,29.82,10.0,SW,5.8,-,N/A,,Partly Cloudy,230,2013-07-27 15:40:00
11:53 AM,71.1,62.1,73,29.81,10.0,SSW,5.8,-,N/A,,Mostly Cloudy,210,2013-07-27 15:53:00
12:17 PM,73.4,62.6,69,29.81,10.0,SSW,5.8,-,N/A,,Partly Cloudy,210,2013-07-27 16:17:00
12:53 PM,73.9,62.1,66,29.79,10.0,Calm,Calm,-,N/A,,Partly Cloudy,0,2013-07-27 16:53:00
1:53 PM,78.1,57.9,50,29.76,10.0,SSW,8.1,-,N/A,,Partly Cloudy,210,2013-07-27 17:53:00
2:53 PM,75.0,57.9,55,29.75,10.0,West,8.1,-,N/A,,Overcast,270,2013-07-27 18:53:00
3:53 PM,69.1,59.0,70,29.76,10.0,West,11.5,-,0.00,,Overcast,280,2013-07-27 19:53:00
4:53 PM,72.0,57.9,61,29.75,10.0,WNW,13.8,19.6,N/A,,Scattered Clouds,290,2013-07-27 20:53:00
5:53 PM,69.1,59.0,70,29.75,10.0,NW,9.2,-,0.01,Rain,Light Rain,310,2013-07-27 21:53:00
6:53 PM,66.0,57.0,73,29.77,10.0,West,13.8,24.2,0.00,Rain,Light Rain,280,2013-07-27 22:53:00
7:53 PM,66.0,54.0,65,29.79,10.0,WNW,11.5,19.6,0.00,,Overcast,290,2013-07-27 23:53:00
8:53 PM,63.0,53.1,70,29.82,10.0,WSW,12.7,-,N/A,,Overcast,250,2013-07-28 00:53:00
9:53 PM,61.0,51.1,70,29.83,10.0,West,12.7,-,N/A,,Overcast,270,2013-07-28 01:53:00
10:53 PM,57.9,48.9,72,29.83,10.0,West,12.7,23.0,N/A,,Mostly Cloudy,260,2013-07-28 02:53:00
11:53 PM,55.9,48.0,75,29.83,10.0,West,11.5,-,N/A,,Overcast,260,2013-07-28 03:53:00